Estación municipal de Susqueda - St. Martí Sacalm (La Selva, )

Consulta los datos en tiempo real de la estación municipal de Susqueda - St. Martí Sacalm





Hora UTC 03:35
Temperatura 20.5 ºC
Humedad 62.5 %
Presión 1020.5 hPa
Pluja 0.0 mm
Velocidad viento 7.0 km/h
Dirección viento SSE
Radiación solar 0.1 W/m²

Datos diarios 2026-08-31



Hora UTC (invierno +1h; verano +2h)
Temperatura (ºC) Humedad (%) Presión (hPa) Velocidad viento (km/h) Precipitación (mm) Radiación solar (W/m²)
Hora UTC Aire Humedad Presión Vel. Dir. Vel. Max Dir. Intent. máx 5 min. Rad. Sol.
00:05 21.8 49.9 1020.5 0.5 SSW 0.5 SW 0.0 0.1
00:10 22.1 49.4 1020.5 0.0 NNE 0.0 SW 0.0 0.1
00:15 22.3 48.8 1020.5 0.0 NNE 0.0 SSW 0.0 0.1
00:20 22.4 48.9 1020.5 0.0 NNE 0.0 S 0.0 0.1
00:25 22.3 48.6 1020.5 0.0 NNE 0.0 SW 0.0 0.1
00:30 22.4 50.0 1020.5 0.2 E 3.9 ENE 0.0 0.1
00:35 22.3 51.5 1020.4 1.1 ENE 5.0 ENE 0.0 0.1
00:40 22.1 52.4 1020.4 0.4 ENE 4.2 ENE 0.0 0.1
00:45 22.0 52.9 1020.4 2.6 E 4.6 E 0.0 0.1
00:50 22.0 52.9 1020.4 5.2 ESE 6.7 E 0.0 0.1
00:55 22.5 51.7 1020.4 4.1 ESE 6.4 ESE 0.0 0.1
01:00 22.7 50.9 1020.4 5.5 SE 9.5 SE 0.0 0.1
01:05 22.5 50.6 1020.4 6.7 SSE 9.9 SSE 0.0 0.1
01:10 22.5 50.0 1020.4 6.4 SE 9.5 SE 0.0 0.1
01:15 22.4 50.6 1020.4 6.0 SE 9.9 SE 0.0 0.1
01:20 22.2 51.5 1020.3 6.7 SSE 11.3 SSE 0.0 0.1
01:25 22.0 52.1 1020.3 4.8 SSE 9.2 SSE 0.0 0.1
01:30 21.9 52.4 1020.3 3.9 SSE 8.1 SSE 0.0 0.1
01:35 21.8 52.5 1020.3 4.0 S 8.8 SSE 0.0 0.1
01:40 21.6 52.9 1020.4 1.1 S 4.2 S 0.0 0.1
01:45 21.4 53.5 1020.4 1.3 SSW 5.7 SSE 0.0 0.1
01:50 21.3 53.6 1020.4 1.8 SSW 5.7 SW 0.0 0.1
01:55 21.3 53.4 1020.4 3.6 SSW 6.7 SW 0.0 0.1
02:00 21.3 53.6 1020.4 6.0 SW 9.5 SW 0.0 0.1
02:05 21.4 52.9 1020.4 7.6 SW 9.5 SSW 0.0 0.1
02:10 21.2 53.5 1020.4 8.7 SW 11.0 SW 0.0 0.1
02:15 21.1 53.1 1020.4 9.4 SW 12.7 SW 0.0 0.1
02:20 21.0 53.2 1020.4 10.0 SW 12.4 SW 0.0 0.1
02:25 20.5 54.9 1020.4 8.3 SW 12.0 SW 0.0 0.1
02:30 20.4 55.1 1020.4 9.8 SW 13.1 SW 0.0 0.1
02:35 20.4 55.7 1020.4 10.1 SW 13.1 WSW 0.0 0.1
02:40 20.4 56.7 1020.5 11.5 SW 14.8 WSW 0.0 0.1
02:45 20.8 56.7 1020.5 11.1 SW 14.8 SW 0.0 0.1
02:50 20.8 57.3 1020.5 10.6 SW 14.8 SW 0.0 0.1
02:55 20.9 57.5 1020.5 11.3 SW 15.2 SW 0.0 0.1
03:00 20.9 57.4 1020.5 8.6 SSW 11.7 SW 0.0 0.1
03:05 20.9 57.4 1020.5 6.9 SSW 9.2 SSW 0.0 0.1
03:10 20.7 58.5 1020.5 6.2 S 13.8 S 0.0 0.1
03:15 20.7 59.5 1020.6 6.9 S 11.3 SSE 0.0 0.1
03:20 20.7 60.9 1020.6 5.8 S 13.8 SSE 0.0 0.1
03:25 20.6 61.6 1020.6 5.2 S 12.0 S 0.0 0.1
03:30 20.5 62.2 1020.6 5.2 S 12.4 SSE 0.0 0.1
03:35 20.5 62.5 1020.5 7.0 SSE 12.4 SSE 0.0 0.1
Máxima 22.7 62.5 1020.6 11.5 SW 15.2 SW 0.0 0.1
Mínima 20 48.6 1020.3
Total 0.0